This demonstration page uses our WeatherBlox Daily Observations layout. Learn more.

Left ArrowRight Arrow

Hourly Observations for July 4, 2017

Temp ( °F °C ) Dew Point ( °F °C ) Humidity (%) Winds ( mph kmh ) Pressure ( in mb ) Visibility ( mi km ) Precip ( " mm )
12:53 am 00:53 Clear 73 22.8 67 19.4 81 81 SSE 6 9 29.96 1014 10 16 0.00 0.00
1:53 am 01:53 Clear 71 21.7 66 18.9 84 84 SSE 5 7 29.96 1015 10 16 0.00 0.00
2:53 am 02:53 Clear 71 21.7 66 18.9 84 84 SSE 6 9 29.95 1014 10 16 0.00 0.00
3:53 am 03:53 Clear 68 20 65 18.3 90 90 ESE 6 9 29.94 1014 10 16 0.00 0.00
4:53 am 04:53 Clear 69 20.6 66 18.9 90 90 SE 9 15 29.93 1014 10 16 0.00 0.00
5:53 am 05:53 Clear 69 20.6 66 18.9 90 90 S 7 11 29.94 1014 10 16 0.00 0.00
6:53 am 06:53 Sunny 69 20.6 66 18.9 90 90 S 5 7 29.95 1014 10 16 0.00 0.00
7:53 am 07:53 Sunny 71 21.7 67 19.4 87 87 SE 7 11 29.96 1015 10 16 0.00 0.00
8:53 am 08:53 Sunny 74 23.3 69 20.6 85 85 S 7 11 29.99 1016 10 16 0.00 0.00
9:02 am 09:02 Mostly Sunny 75 24 70 21 83 83 S 7 11 29.97 1015 10 16 0.00 0.00
9:50 am 09:50 Mostly Cloudy 77 25 70 21 79 79 VRB 7 11 29.97 1015 10 16 0.00 0.00
9:53 am 09:53 Mostly Cloudy 78 25.6 69 20.6 74 74 SSW 9 15 30.00 1016 10 16 0.00 0.00
10:18 am 10:18 Mostly Cloudy 81 27 68 20 66 66 S 8 13 29.97 1015 10 16 0.00 0.00
10:25 am 10:25 Partly Cloudy 80 26.7 68 20 67 67 VRB 6 9 29.97 1015 10 16 0.00 0.00
10:53 am 10:53 Partly Cloudy 81 27.2 68 20 65 65 VRB 3 6 29.99 1016 10 16 0.00 0.00
11:53 am 11:53 Mostly Sunny 83 28.3 66 18.9 57 57 S 9 15 29.99 1016 10 16 0.00 0.00
12:53 pm 12:53 Mostly Sunny 85 29.4 65 18.3 51 51 SE 8 13 29.98 1015 10 16 0.00 0.00
1:53 pm 13:53 Mostly Sunny 88 31.1 66 18.9 48 48 S 8 13 29.98 1015 10 16 0.00 0.00
2:53 pm 14:53 Mostly Sunny 88 31.1 65 18.3 46 46 SSE 13 20 29.98 1015 10 16 0.00 0.00
3:53 pm 15:53 Partly Cloudy 87 30.6 64 17.8 46 46 VRB 5 7 29.97 1015 10 16 0.00 0.00
4:53 pm 16:53 Sunny 88 31.1 62 16.7 42 42 SSE 8 13 29.96 1015 10 16 0.00 0.00
5:22 pm 17:22 Windy with Storms Likely 72 22 66 19 83 83 E 22 35 29.97 1015 3 4 0.00 0.00
5:26 pm 17:26 Cloudy with Strong Thunderstorms 70 21 66 19 88 88 ENE 30 48 30.00 1016 1 1 0.00 0.00
5:36 pm 17:36 Cloudy with Strong Thunderstorms 70 21 64 18 83 83 E 15 24 30.00 1016 1 1 0.00 0.00
5:51 pm 17:51 Cloudy with Strong Thunderstorms 72 22 64 18 78 78 ESE 9 15 29.97 1015 2 3 1.02 25.91
5:53 pm 17:53 Cloudy with Strong Thunderstorms 71 21.7 64 17.8 79 79 SE 6 9 29.99 1016 2 3 1.03 26.16
5:58 pm 17:58 Cloudy with Thunderstorms 72 22 64 18 78 78 Calm 29.97 1015 3 5 0.00 0.00
6:14 pm 18:14 Cloudy with Nearby Thunderstorms 72 22 66 19 83 83 E 6 9 29.97 1015 7 11 0.00 0.00
6:35 pm 18:35 Partly Cloudy 73 22.8 67 19.4 81 81 Calm 29.97 1015 10 16 0.05 1.27
6:53 pm 18:53 Sunny 73 22.8 68 20 84 84 NW 5 7 29.98 1015 10 16 0.05 1.27
7:53 pm 19:53 Sunny 76 24.4 69 20.6 79 79 E 5 7 29.99 1016 10 16 0.00 0.00
8:53 pm 20:53 Sunny 74 23.3 67 19.4 79 79 ENE 3 6 30.00 1016 10 16 0.00 0.00
9:53 pm 21:53 Clear 71 21.7 64 17.8 79 79 E 6 9 30.03 1017 8 13 0.00 0.00
10:53 pm 22:53 Hazy 72 22.2 67 19.4 84 84 ESE 8 13 30.03 1017 4 6 0.00 0.00
11:53 pm 23:53 Clear with Mist and Fog 71 21.7 67 19.4 87 87 SE 8 13 30.04 1017 5 8 0.00 0.00

Powered by AerisWeather